TimeAST,TemperatureF,Dew PointF,Humidity,Sea Level PressureIn,VisibilityMPH,Wind Direction,Wind SpeedMPH,Gust SpeedMPH,PrecipitationIn,Events,Conditions,WindDirDegrees,DateUTC
12:00 AM,12.2,3.2,67,30.42,15.0,West,8.1,-,N/A,,Clear,260,2014-03-07 04:00:00
1:00 AM,10.4,1.4,67,30.43,15.0,WSW,5.8,-,N/A,,Clear,250,2014-03-07 05:00:00
2:00 AM,12,0,45,30.42,15,WSW,8.1,,,,,240,2014-03-07 06:00:00
2:00 AM,12.2,-0.4,57,30.42,15.0,WSW,6.9,-,N/A,,Clear,240,2014-03-07 06:00:00
3:00 AM,10.4,-0.4,62,30.40,15.0,WSW,6.9,-,N/A,,Clear,250,2014-03-07 07:00:00
4:00 AM,8.6,-0.4,67,30.41,15.0,SW,6.9,-,N/A,,Clear,230,2014-03-07 08:00:00
5:00 AM,6.8,-4.0,61,30.43,15.0,WSW,9.2,-,N/A,,Clear,240,2014-03-07 09:00:00
6:00 AM,6.8,-5.8,56,30.41,15.0,SW,8.1,-,N/A,,Clear,230,2014-03-07 10:00:00
7:00 AM,6.8,-7.6,52,30.40,15.0,SW,8.1,-,N/A,,Clear,220,2014-03-07 11:00:00
8:00 AM,10,-3,40,30.41,15,SSW,5.8,,,,Clear,210,2014-03-07 12:00:00
8:00 AM,10.4,-4.0,52,30.41,15.0,SW,5.8,-,N/A,,Partly Cloudy,220,2014-03-07 12:00:00
9:00 AM,15.8,1.4,53,30.39,15.0,SW,6.9,-,N/A,,Partly Cloudy,220,2014-03-07 13:00:00
10:00 AM,19.4,1.4,46,30.36,15.0,SSW,8.1,-,N/A,,Partly Cloudy,200,2014-03-07 14:00:00
11:00 AM,21.2,3.2,46,30.35,15.0,SSW,15.0,-,N/A,,Partly Cloudy,200,2014-03-07 15:00:00
12:00 PM,24.8,1.4,36,30.31,15.0,SSW,10.4,-,N/A,,Partly Cloudy,210,2014-03-07 16:00:00
1:00 PM,28.4,5.0,37,30.26,15.0,SSW,13.8,-,N/A,,Partly Cloudy,200,2014-03-07 17:00:00
2:00 PM,30,9,26,30.21,15,South,16.1,,,,Clear,190,2014-03-07 18:00:00
2:00 PM,30.2,8.6,40,30.21,15.0,South,17.3,-,N/A,,Partly Cloudy,190,2014-03-07 18:00:00
3:00 PM,32.0,12.2,44,30.19,15.0,SSW,19.6,-,N/A,,Partly Cloudy,200,2014-03-07 19:00:00
4:00 PM,33.8,10.4,38,30.16,15.0,SSW,21.9,28.8,N/A,,Scattered Clouds,200,2014-03-07 20:00:00
5:00 PM,32.0,8.6,38,30.13,15.0,SSW,17.3,26.5,N/A,Snow,Low Drifting Snow,210,2014-03-07 21:00:00
6:00 PM,30.2,10.4,44,30.11,15.0,SW,11.5,18.4,N/A,Snow,Low Drifting Snow,220,2014-03-07 22:00:00
7:00 PM,28.4,12.2,51,30.11,15.0,SSW,9.2,-,N/A,,Scattered Clouds,210,2014-03-07 23:00:00
8:00 PM,27,10,35,30.09,15,SSW,11.5,,,,Clear,200,2014-03-08 00:00:00
8:00 PM,26.6,10.4,51,30.09,15.0,SSW,11.5,-,N/A,,Partly Cloudy,200,2014-03-08 00:00:00
9:00 PM,24.8,12.2,59,30.09,15.0,South,10.4,-,N/A,,Partly Cloudy,190,2014-03-08 01:00:00
10:00 PM,24.8,15.8,69,30.08,15.0,SSW,10.4,-,N/A,,Partly Cloudy,210,2014-03-08 02:00:00
11:00 PM,24.8,15.8,69,30.05,15.0,South,12.7,-,N/A,,Partly Cloudy,190,2014-03-08 03:00:00